Wind_Speed
14 13 13 12 11 10 9 8 7 7 8 5 3 2 3 3 3 2 6 6 8 10 12 13 15 16 15 14 14 13 12 12 11 10 10 14 19 17 18 22 25 26 28 29 26
14 13 12 12 10 10 9 8 8 8 6 6 3 2 4 2 1 2 4 6 8 10 12 13 15 15 15 15 13 13 15 13 13 14 16 16 16 20 21 22 23 28 30 28 27
14 13 12 11 8 8 8 8 8 7 6 6 4 4 4 3 4 4 6 7 9 10 11 14 14 14 14 15 15 16 15 16 18 19 20 23 25 23 23 23 27 29 30 31 29
14 13 11 9 8 7 7 7 7 7 6 6 6 5 5 6 6 7 9 10 12 13 14 17 16 15 16 17 19 21 22 22 23 24 26 27 28 29 31 29 30 33 33 36 36
14 11 10 7 5 4 4 6 7 8 7 6 6 7 6 8 9 10 12 13 13 15 15 17 18 18 19 21 22 24 27 29 30 31 32 33 33 35 34 36 36 38 39 41 41
12 11 9 6 4 3 4 5 6 6 6 7 7 7 8 11 13 14 14 15 16 18 18 20 21 21 22 23 25 28 30 32 34 37 38 40 40 41 42 42 44 47 49 50 51
14 11 10 7 6 4 4 4 5 5 6 7 7 8 11 13 15 15 15 17 18 19 21 22 23 24 25 27 28 31 32 35 37 40 41 41 43 46 50 53 54 57 59 60 62
17 12 11 11 9 8 8 5 6 6 7 8 9 9 13 14 17 17 18 19 19 20 22 23 24 26 28 30 31 32 35 37 42 41 43 44 46 52 55 58 62 64 66 67 69
19 15 13 14 13 12 13 13 13 11 10 12 13 14 16 18 19 19 19 19 20 21 23 23 25 28 31 31 34 35 37 39 40 42 45 52 53 59 62 65 67 70 72 76 78
21 19 16 17 16 15 16 17 19 18 18 18 19 19 18 18 20 19 18 18 20 21 23 25 26 29 30 32 35 37 39 41 46 50 53 58 62 69 71 75 77 78 77 74 75
24 22 20 19 18 18 17 16 18 20 21 20 21 21 19 19 18 17 18 18 19 21 24 26 28 30 32 34 36 38 41 46 51 58 61 67 72 76 73 63 52 47 44 41 41
27 27 25 23 21 20 19 18 20 20 18 18 19 20 20 19 18 18 19 20 22 24 26 28 30 31 32 34 37 43 47 53 59 67 72 73 69 44 34 27 31 31 34 39 43
30 29 28 26 24 22 21 20 21 21 20 18 17 18 17 17 18 19 19 21 23 25 28 30 30 31 33 35 40 46 52 59 69 73 70 47 24 24 32 38 40 41 43 45 47
33 32 31 28 27 25 24 21 22 21 19 18 17 16 17 17 16 17 20 23 25 28 28 28 31 31 33 39 44 50 57 66 69 49 29 28 28 33 35 35 38 41 44 45 46
32 31 30 30 28 28 25 24 23 23 20 16 14 15 15 16 17 19 22 25 29 29 28 28 29 32 38 42 46 53 62 60 35 27 28 31 34 28 32 32 36 44 48 46 47
30 29 29 28 27 27 27 25 23 22 19 16 15 16 17 18 19 20 23 28 29 28 28 27 29 33 40 43 49 56 55 37 22 28 28 31 30 31 29 35 44 52 51 46 43
34 31 29 25 24 23 24 24 22 20 20 18 17 16 17 19 20 21 24 28 27 28 27 27 30 35 40 44 51 55 45 28 30 33 34 29 30 32 33 39 47 53 54 54 49
39 34 32 31 30 27 25 26 23 20 22 22 22 20 20 21 21 24 26 27 28 26 28 29 32 37 41 46 50 46 33 30 33 36 35 25 31 36 36 44 48 57 58 57 51
44 38 37 32 34 33 32 30 25 22 20 25 25 23 21 22 22 23 26 28 27 28 28 30 33 37 42 47 48 43 27 28 34 37 41 38 36 38 42 48 51 57 59 62 58
36 41 37 37 36 36 36 33 31 29 26 29 27 28 24 22 23 26 27 27 26 26 26 30 32 37 41 46 48 43 29 30 34 40 44 43 42 43 44 48 53 55 62 59 53
40 42 35 36 38 39 40 34 32 32 32 32 30 29 28 24 23 26 30 27 26 24 25 30 33 37 41 43 46 47 30 27 32 35 40 48 42 43 44 52 54 53 60 60 52
38 44 45 43 38 35 35 37 32 29 30 31 31 31 29 28 25 27 28 25 26 24 26 30 34 36 41 41 42 44 30 25 32 38 41 46 42 44 47 47 48 52 57 63 49
50 49 44 39 41 36 34 33 32 30 31 31 31 35 31 29 28 27 27 25 26 26 27 30 34 37 41 42 42 44 25 23 30 36 38 43 41 38 40 42 44 51 60 65 42
50 54 53 46 38 39 36 35 31 31 31 31 29 32 35 32 28 28 26 24 25 28 28 29 32 35 40 41 41 42 28 23 28 37 41 43 41 38 39 43 45 52 58 60 35
55 55 49 50 49 41 44 38 36 32 32 31 29 28 33 31 28 28 28 25 26 26 25 29 31 33 37 38 39 40 27 24 30 35 38 37 36 33 38 47 48 49 56 53 35
61 59 54 50 52 52 46 47 42 39 32 34 31 28 30 29 31 28 29 27 24 23 24 27 32 35 32 34 36 36 28 23 28 33 37 35 27 33 41 45 43 47 51 50 34
64 62 57 54 55 53 47 45 42 39 38 35 30 29 27 30 31 30 27 27 23 23 24 28 33 37 35 34 36 36 31 22 26 31 34 30 28 31 41 41 41 45 47 55 37
Wind_Direction
303 312 310 301 303 300 294 281 256 258 270 242 197 154 141 107 81 33 10 356 351 351 349 347 347 349 352 354 355 355 354 346 332 317 302 294 291 289 281 273 273 274 271 264 271
305 313 312 300 300 292 285 276 248 247 234 226 197 222 183 175 195 330 335 354 350 339 337 338 340 343 344 345 346 343 334 328 322 317 312 308 300 296 291 291 284 275 274 276 273
302 313 316 302 303 288 274 264 244 235 221 225 221 216 199 239 285 306 328 324 326 326 325 331 335 335 336 332 328 323 317 316 313 310 306 303 300 297 295 290 284 289 285 280 273
305 309 316 311 301 281 262 250 236 218 208 215 229 222 235 256 268 297 307 307 309 321 323 329 326 326 324 321 319 317 315 312 309 308 305 302 299 297 295 290 284 284 281 282 280
294 305 316 316 308 289 262 244 237 221 203 213 226 237 263 269 275 289 302 298 303 312 313 316 319 320 319 319 317 314 311 309 307 307 307 303 296 292 290 290 289 286 283 281 279
282 296 303 303 290 270 258 246 238 235 218 218 231 247 266 279 288 292 293 292 298 303 306 315 315 316 316 314 312 309 305 302 301 301 300 299 297 294 290 287 289 288 286 283 279
272 285 285 280 266 248 240 236 240 241 233 230 243 266 284 286 287 287 286 290 294 302 309 312 311 312 312 308 305 304 303 300 300 301 300 298 298 293 292 291 288 286 284 282 280
265 271 271 267 254 247 247 255 258 265 275 277 277 284 288 287 287 285 284 289 293 299 305 306 310 311 312 310 307 306 305 304 303 302 300 298 295 292 290 288 286 283 279 276 274
257 260 259 261 258 253 253 257 261 269 277 282 286 287 292 288 286 285 285 288 293 297 302 307 310 314 314 311 310 309 308 304 301 299 299 299 298 295 293 290 287 285 283 281 278
249 256 254 256 263 263 262 265 269 273 276 285 287 286 285 287 286 284 284 287 295 302 305 308 312 314 314 315 313 311 308 306 306 306 304 301 300 297 295 294 292 290 287 282 278
245 249 257 258 256 263 267 274 278 276 276 280 285 287 289 289 291 290 293 296 303 310 311 312 314 316 317 317 314 312 312 311 310 308 306 306 303 298 295 291 290 292 293 294 294
245 251 257 259 255 259 268 279 278 278 271 272 279 286 290 288 288 293 300 306 309 313 315 316 318 318 319 316 318 319 317 314 314 313 310 308 303 298 298 308 309 298 290 292 293
242 248 255 263 256 257 262 272 278 276 275 271 273 276 282 283 286 294 302 304 311 317 319 319 319 320 320 320 321 319 319 319 320 320 314 311 328 324 319 318 317 312 309 306 300
251 249 254 261 261 260 263 268 277 279 278 275 275 276 275 274 282 295 301 310 316 318 317 320 318 321 320 322 321 323 325 327 325 326 345 342 335 319 319 321 318 313 308 303 297
252 253 258 260 260 263 263 267 273 278 276 273 272 272 272 273 283 295 305 311 317 319 320 320 320 319 322 325 326 329 331 332 335 350 343 324 319 321 323 323 326 325 319 308 300
248 249 254 257 258 262 263 261 265 272 275 271 271 266 271 275 281 293 304 311 317 319 318 320 318 319 323 327 333 334 336 334 334 329 336 332 325 324 326 328 323 327 329 315 304
244 248 250 250 252 256 254 252 256 265 274 268 268 268 273 280 285 295 304 314 319 319 318 317 316 322 325 333 338 338 335 325 326 332 338 333 323 325 328 328 328 325 332 327 313
241 242 244 248 250 253 254 256 256 262 276 274 263 267 274 281 286 296 305 315 316 314 313 314 317 326 329 336 338 340 329 329 331 333 332 332 333 328 328 332 331 331 326 327 321
250 240 242 247 251 251 253 256 260 270 271 276 274 266 271 278 286 293 305 314 313 311 313 313 321 329 333 338 340 340 323 326 329 333 334 338 340 329 335 334 332 330 331 329 324
253 251 245 245 252 253 254 256 259 263 270 270 269 270 268 274 283 292 304 306 309 310 311 311 323 330 335 338 339 336 322 325 335 336 336 336 346 334 333 334 332 336 336 332 332
248 248 246 247 246 245 249 257 260 262 263 265 264 263 267 268 278 291 301 301 303 305 308 311 325 331 334 339 339 337 324 320 329 332 334 335 351 333 335 336 337 337 337 338 331
242 245 239 239 241 247 252 252 257 255 258 261 263 260 260 265 275 287 295 298 298 300 308 314 324 330 333 338 339 338 328 317 326 331 337 336 351 338 340 337 335 339 349 343 334
234 240 238 244 240 243 244 241 245 253 256 259 264 259 253 259 270 282 288 294 292 295 306 313 323 328 329 336 341 339 327 314 324 329 337 335 344 339 344 347 343 344 351 346 343
240 241 240 246 238 241 243 237 244 255 252 258 260 264 258 258 266 277 281 287 289 291 301 310 322 328 328 333 340 339 324 314 326 329 338 339 342 345 353 349 350 352 353 353 354
240 238 236 241 244 250 250 249 243 248 253 257 257 260 259 259 269 276 279 285 287 290 301 309 322 325 327 332 340 337 320 316 328 331 338 343 340 349 354 354 353 359 0 1 6
240 239 236 234 237 245 251 250 249 249 255 255 254 258 259 261 267 270 276 279 282 287 298 310 318 322 331 331 338 336 322 315 325 331 338 341 346 350 354 355 357 2 3 10 11
238 238 239 236 236 240 247 248 250 250 256 247 249 252 257 258 261 265 273 274 276 282 293 311 314 318 325 331 337 334 328 310 324 331 338 341 346 353 350 354 358 3 6 19 13
Height
5782 5781 5779 5777 5776 5774 5773 5772 5772 5771 5771 5772 5771 5771 5771 5771 5771 5770 5769 5769 5768 5766 5764 5762 5760 5758 5756 5755 5755 5754 5754 5753 5753 5753 5753 5752 5751 5753 5753 5752 5751 5749 5749 5749 5749
5779 5777 5776 5775 5773 5772 5771 5771 5770 5770 5770 5770 5770 5771 5771 5771 5771 5770 5769 5768 5767 5766 5764 5762 5760 5758 5756 5755 5755 5754 5754 5754 5753 5751 5751 5750 5751 5749 5749 5747 5746 5743 5743 5744 5743
5777 5775 5773 5772 5771 5770 5769 5769 5769 5769 5769 5769 5769 5770 5770 5770 5770 5769 5768 5767 5766 5765 5764 5762 5760 5757 5756 5754 5753 5753 5753 5751 5750 5750 5748 5747 5745 5744 5742 5741 5739 5737 5734 5733 5735
5774 5773 5771 5769 5768 5768 5767 5767 5767 5767 5768 5768 5769 5769 5769 5769 5770 5768 5767 5766 5765 5764 5762 5760 5758 5756 5755 5753 5751 5749 5747 5746 5745 5744 5742 5741 5739 5736 5734 5734 5733 5731 5730 5727 5726
5771 5770 5769 5767 5767 5766 5766 5766 5766 5766 5766 5767 5767 5768 5768 5768 5767 5766 5765 5764 5763 5762 5760 5759 5756 5754 5751 5749 5748 5745 5743 5740 5738 5736 5734 5733 5731 5728 5728 5726 5724 5722 5721 5719 5717
5768 5768 5767 5766 5765 5764 5764 5764 5764 5765 5764 5765 5765 5766 5766 5767 5765 5764 5763 5762 5760 5760 5758 5755 5753 5751 5749 5746 5744 5741 5739 5736 5732 5730 5727 5725 5722 5718 5716 5715 5713 5710 5709 5706 5705
5765 5765 5765 5764 5764 5763 5763 5763 5763 5763 5763 5763 5763 5763 5763 5764 5762 5761 5760 5759 5757 5756 5754 5752 5750 5748 5746 5744 5741 5738 5735 5731 5727 5724 5719 5717 5714 5709 5704 5701 5699 5695 5692 5691 5689
5762 5761 5762 5763 5762 5761 5762 5761 5761 5761 5762 5761 5761 5760 5760 5759 5758 5757 5756 5756 5754 5752 5751 5749 5746 5744 5742 5739 5737 5733 5730 5726 5720 5717 5712 5709 5706 5699 5696 5690 5684 5680 5677 5674 5671
5758 5758 5759 5759 5759 5758 5759 5758 5759 5758 5759 5759 5758 5757 5757 5756 5755 5753 5752 5751 5750 5748 5746 5745 5743 5740 5738 5734 5731 5727 5723 5719 5715 5710 5705 5699 5695 5685 5680 5675 5669 5664 5658 5653 5650
5753 5754 5755 5755 5755 5755 5755 5754 5755 5755 5755 5755 5755 5755 5754 5753 5752 5750 5749 5748 5746 5745 5743 5741 5737 5734 5732 5728 5724 5720 5716 5711 5705 5700 5695 5688 5682 5670 5663 5655 5647 5641 5634 5629 5625
5748 5749 5750 5751 5750 5751 5751 5751 5752 5752 5751 5751 5751 5750 5749 5749 5748 5747 5746 5745 5743 5741 5739 5735 5732 5728 5725 5721 5717 5712 5707 5702 5697 5688 5681 5671 5661 5649 5642 5633 5629 5623 5618 5613 5608
5742 5744 5745 5746 5746 5746 5747 5747 5746 5747 5746 5745 5745 5746 5745 5744 5744 5743 5743 5742 5739 5736 5733 5731 5727 5723 5719 5714 5709 5703 5696 5691 5686 5675 5661 5651 5638 5629 5624 5623 5620 5615 5610 5605 5600
5736 5737 5739 5740 5741 5741 5742 5742 5741 5741 5741 5741 5740 5740 5740 5741 5740 5739 5738 5736 5734 5731 5728 5725 5721 5717 5712 5707 5702 5695 5688 5680 5667 5659 5640 5629 5628 5623 5619 5616 5612 5606 5599 5593 5586
5729 5730 5732 5733 5736 5736 5737 5736 5737 5736 5736 5737 5736 5735 5736 5736 5736 5735 5734 5733 5729 5726 5723 5720 5716 5711 5705 5700 5695 5688 5679 5667 5654 5641 5633 5627 5624 5621 5616 5610 5604 5598 5589 5580 5571
5722 5724 5725 5727 5728 5730 5732 5731 5731 5731 5731 5732 5732 5731 5731 5732 5732 5731 5730 5728 5724 5721 5718 5714 5710 5706 5700 5693 5686 5679 5668 5656 5646 5639 5635 5627 5620 5618 5611 5604 5597 5589 5577 5568 5558
5715 5716 5718 5720 5721 5723 5725 5726 5726 5728 5727 5727 5727 5727 5727 5727 5727 5725 5724 5723 5719 5715 5712 5709 5705 5701 5695 5687 5678 5670 5660 5650 5644 5638 5632 5624 5617 5612 5604 5596 5589 5580 5569 5559 5549
5707 5709 5711 5713 5715 5715 5718 5719 5721 5722 5724 5723 5722 5722 5722 5723 5722 5720 5719 5717 5714 5711 5708 5705 5700 5695 5689 5681 5671 5663 5654 5648 5641 5632 5627 5619 5612 5605 5598 5590 5580 5571 5559 5547 5536
5698 5700 5703 5706 5708 5709 5711 5714 5714 5717 5718 5718 5717 5717 5717 5717 5717 5716 5714 5711 5708 5705 5703 5700 5695 5689 5682 5675 5666 5658 5649 5642 5634 5628 5623 5618 5608 5600 5592 5582 5572 5561 5549 5538 5524
5689 5691 5695 5698 5700 5702 5705 5706 5709 5711 5710 5712 5713 5712 5712 5712 5712 5710 5709 5707 5704 5701 5699 5694 5690 5683 5677 5668 5661 5653 5646 5640 5632 5624 5614 5608 5602 5593 5583 5575 5566 5555 5539 5522 5507
5679 5682 5686 5688 5691 5693 5695 5699 5701 5703 5704 5705 5706 5707 5707 5706 5706 5705 5703 5701 5698 5695 5693 5690 5685 5678 5672 5665 5657 5648 5641 5636 5629 5618 5609 5603 5597 5585 5579 5568 5558 5543 5529 5513 5496
5669 5673 5677 5681 5682 5684 5687 5691 5693 5695 5697 5699 5700 5700 5701 5701 5699 5699 5698 5696 5693 5689 5687 5685 5680 5674 5667 5660 5653 5644 5637 5633 5627 5620 5610 5597 5596 5582 5573 5561 5548 5538 5523 5503 5488
5658 5661 5668 5670 5673 5675 5680 5684 5686 5688 5689 5690 5692 5694 5695 5695 5694 5693 5693 5690 5688 5684 5682 5679 5675 5669 5663 5656 5648 5638 5631 5629 5623 5615 5607 5598 5592 5577 5567 5559 5546 5534 5515 5497 5479
5646 5649 5654 5659 5662 5667 5671 5674 5677 5680 5681 5682 5685 5687 5687 5688 5689 5688 5687 5686 5684 5681 5676 5674 5670 5664 5658 5654 5645 5635 5628 5625 5620 5612 5607 5596 5589 5579 5569 5557 5546 5530 5512 5493 5475
5632 5637 5642 5648 5652 5658 5662 5665 5669 5672 5673 5674 5677 5678 5680 5681 5682 5682 5682 5680 5679 5677 5672 5669 5667 5661 5654 5648 5640 5632 5625 5622 5618 5609 5601 5592 5581 5574 5564 5556 5542 5528 5512 5490 5474
5619 5624 5632 5638 5645 5648 5651 5657 5660 5663 5665 5667 5668 5671 5672 5675 5676 5676 5675 5675 5674 5671 5667 5665 5662 5657 5651 5643 5636 5629 5622 5618 5613 5606 5599 5593 5581 5573 5563 5552 5541 5528 5514 5494 5481
5605 5613 5621 5628 5632 5637 5641 5649 5652 5654 5657 5660 5662 5663 5665 5669 5669 5670 5670 5669 5668 5666 5662 5661 5656 5652 5649 5639 5632 5625 5618 5615 5611 5604 5597 5588 5583 5573 5562 5556 5545 5531 5517 5499 5487
5592 5600 5608 5615 5619 5625 5634 5639 5641 5644 5647 5651 5653 5655 5658 5660 5661 5663 5664 5663 5661 5660 5658 5656 5651 5647 5644 5634 5628 5623 5617 5612 5609 5603 5595 5587 5581 5573 5567 5557 5547 5536 5522 5506 5493